Terminal Aerodrome Forecast
Issued by NWS San Angelo, TX

Current Version | Previous Version | Text Only | Print | Product List | Glossary Off
Versions: 1 2 3 4 5 6 7 8 9 10 11 12 13 14 15 16

000
FTUS44 KSJT 310500
TAFSJT
TAF
KSJT 310520Z 3106/0106 04010G16KT P6SM SKC
     FM312200 04007KT P6SM SKC=

USA.gov is the U.S. government's official web portal to all federal, state and local government web resources and services.